Regional Weather Roundup
Issued by NWS

Home | Current Version | Previous Version | Graphics & Text | Print | Product List | Glossary On
Versions: 1 2 3 4 5 6 7 8 9 10 11 12 13 14 15 16 17 18 19 20 21 22 23 24 25 26 27
000
ASUS45 KCYS 181310
RWRWY

WYOMING REGIONAL WEATHER ROUNDUP
NATIONAL WEATHER SERVICE CHEYENNE WY
700 AM MDT WED OCT 18 2017

NOTE:  "FAIR" INDICATES FEW OR NO CLOUDS BELOW 12,000 FEET
WITH NO SIGNIFICANT WEATHER AND/OR OBSTRUCTIONS TO VISIBILITY.

WYZ001-181400-
YELLOWSTONE NATIONAL PARK

CITY           SKY/WX    TMP DP  RH WIND       PRES   REMARKS
LK YELLOWSTONE NOT AVBL
W YELLOWSTONE  NOT AVBL

$$
WYZ002>013-054>058-071-098>099-181400-
NORTHERN WYOMING

CITY           SKY/WX    TMP DP  RH WIND       PRES   REMARKS
JACKSON        FAIR      33  17  51 S8        30.19R WCI  26
CODY           FAIR      54  17  23 W8        30.06
GREYBULL       FAIR      38  26  62 SE5       30.00R WCI  34
WORLAND        FAIR      36  27  69 S12       30.01R WCI  28
SHERIDAN       FAIR      39  25  57 W3        30.01R
BUFFALO        FAIR      51  15  23 N8        30.04R
GILLETTE       FAIR      43  25  49 N9        30.03R
HULETT         FAIR      45  28  53 NE9G16    30.04R
NEWCASTLE      FAIR      41  23  48 CALM      30.00R

$$
WYZ014>020-022>026-101>103-181400-
CENTRAL WYOMING

CITY           SKY/WX    TMP DP  RH WIND       PRES   REMARKS
BIG PINEY      FAIR      25  11  55 E7        30.24R WCI  17
PINEDALE       FAIR      25  16  68 W5        30.24S WCI  19
DUBOIS         FAIR      36  14  41 NW12      30.16S WCI  27
LANDER         FAIR      39  19  44 E6        30.08F WCI  35
RIVERTON       FAIR      47  15  27 W17       30.09R
CASPER         FAIR      42  11  28 W9        30.07S
DOUGLAS        FAIR      40  14  34 CALM      30.04F

$$
WYZ021-027>030-104>119-181400-
SOUTHERN WYOMING

CITY           SKY/WX    TMP DP  RH WIND       PRES   REMARKS
EVANSTON       FAIR      43   7  22 S5        30.27R
KEMMERER       FAIR      32  10  40 N3        30.26S
FORT BRIDGER   FAIR      44   6  20 SW12      30.29R
ROCK SPRINGS   FAIR      38   5  25 E5        30.25R WCI  34
DIXON          FAIR      28  15  57 SE9       30.28R WCI  19
RAWLINS        FAIR      35   8  32 CALM      30.22R
SARATOGA       FAIR      34  12  40 SE6       30.25R WCI  29
LARAMIE        FAIR      36  12  37 W15       30.19S WCI  27
CHEYENNE       FAIR      53  10  18 W16       30.11R
TORRINGTON     FAIR      50  12  21 NW8       30.00R
PINE BLUFFS    FAIR      46  19  34 W10       30.08R

$$




USA.gov is the U.S. government's official web portal to all federal, state and local government web resources and services.